Location: Unspecified
(0.0000°N, 0.0000°E)
Time: 06:34:00
(UTC+00:00)

A-11 Canister half - Pass Details

Date: 26 November 2019
Orbit: 1526 x 1683 km, 47.3° (Epoch: 10 December)

Event Time Altitude Azimuth Distance (km) Brightness Sun altitude
Rises 18:32:09 0° 321° (NW) 4,722 11.8 -10.5°
Reaches altitude 10° 18:35:13 10° 321° (NW) 3,724 11.2 -11.2°
Maximum altitude 18:44:37 88° 50° (NE) 1,531 9.0 -13.4°
Drops below altitude 10° 18:53:56 10° 140° (SE) 3,693 10.8 -15.5°
Sets 18:56:58 0° 140° (SE) 4,682 11.4 -16.2°
